Preview of NWS' New Version of Forecast
This preview is not operational and should not be used for support decisions.

Regional Weather Roundup (RWR)

Issued by National Weather Service (NWS)

                            
000
ASUS46 KSEW 191810
RWRWA 

WASHINGTON REGIONAL WEATHER ROUNDUP
NATIONAL WEATHER SERVICE SEATTLE WA
1100 AM PDT MON AUG 19 2019

NOTE:"FAIR" INDICATES FEW OR NO CLOUDS BELOW 12,000 FEET WITH NO 
SIGNIFICANT WEATHER AND/OR OBSTRUCTIONS TO VISIBILITY.

WAZ507-509-555>559-191900-
SEATTLE, TACOMA, EVERETT, AND VICINITY
  
CITY           SKY/WX    TMP DP  RH WIND       PRES   REMARKS
EVERETT        CLOUDY    64  55  72 VRB3      30.04R                  
6HR MIN TEMP:  59; 6HR MAX TEMP:  64;                                

BOEING FIELD   PTSUNNY   67  54  63 SW6       30.02R                  
6HR MIN TEMP:  62; 6HR MAX TEMP:  67;                                

RENTON         MOSUNNY   67  55  65 VRB5      30.01S                  
6HR MIN TEMP:  62; 6HR MAX TEMP:  67;                                

SEATAC AIRPORT PTSUNNY   66  54  65 W6        30.03R                  
6HR MIN TEMP:  60; 6HR MAX TEMP:  66;                                

JBLM-MCCHORD   NOT AVBL                                               
PUYALLUP       CLOUDY    68  55  64 W3        30.02S                  
BREMERTON      CLOUDY    62  56  80 W3        30.03R                  
6HR MIN TEMP:  57; 6HR MAX TEMP:  62;                                

JBLM-FT LEWIS  NOT AVBL                                               
TACOMA NARROWS CLOUDY    64  54  69 NW3       30.03R                  
6HR MIN TEMP:  57; 6HR MAX TEMP:  64;                                

$$
 
WAZ001-503-506-510-514-515-191900-
NORTH INTERIOR
  
CITY           SKY/WX    TMP DP  RH WIND       PRES   REMARKS
BELLINGHAM     CLOUDY    65  54  67 S10       30.01R                  
6HR MIN TEMP:  62; 6HR MAX TEMP:  65;                                

FRIDAY HARBOR  CLOUDY    65  54  67 SW8       30.02R                  
6HR MIN TEMP:  54; 6HR MAX TEMP:  65;                                

EASTSOUND      PTSUNNY   64  55  72 S8        30.00R                  
PORT ANGELES   CLOUDY    65  51  60 VRB5      30.02R                  
6HR MIN TEMP:  55; 6HR MAX TEMP:  65;                                

EDIZ HOOK      CLOUDY    62  54  76 CALM      30.02R                  
6HR MIN TEMP:  54; 6HR MAX TEMP:  62;                                

PORT TOWNSEND  CLOUDY    64  55  72 NE5       30.02R                  
NAS WHIDBEY    CLOUDY    68  54  60 SW6       30.06R                  
6HR MIN TEMP:  62; 6HR MAX TEMP:  69;                                

ARLINGTON      PTSUNNY   65  55  70 NW6       30.03R                  
6HR MIN TEMP:  58; 6HR MAX TEMP:  66;                                

BURLINGTON     CLOUDY    72  55  56 S3        30.02R                  
$$
 
WAZ020-022-039-040-504-511-512-191900-
SOUTHWEST INTERIOR
  
CITY           SKY/WX    TMP DP  RH WIND       PRES   REMARKS
SHELTON        CLOUDY    64  55  72 VRB3      30.00R                  
6HR MIN TEMP:  58; 6HR MAX TEMP:  64;                                

OLYMPIA        CLOUDY    66  53  63 VRB3      30.01S                  
6HR MIN TEMP:  50; 6HR MAX TEMP:  68;                                

CHEHALIS       CLOUDY    70  55  60 VRB5      30.03R                  
KELSO          CLOUDY    66  55  67 VRB5      30.03R                  
6HR MIN TEMP:  57; 6HR MAX TEMP:  67;                                

VANCOUVER      CLOUDY    67  54  63 VRB5      30.02R                  
6HR MIN TEMP:  60; 6HR MAX TEMP:  67;                                

SCAPPOOSE, OR  CLOUDY    68  55  63 VRB5      30.01R                  
6HR MIN TEMP:  57; 6HR MAX TEMP:  69;                                

PORTLAND, OR   PTSUNNY   69  54  58 NE5       30.02S                  
6HR MIN TEMP:  61; 6HR MAX TEMP:  69;                                

$$
 
WAZ021-516-517-191900-
WASHINGTON COAST
  
CITY           SKY/WX    TMP DP  RH WIND       PRES   REMARKS
FORKS          CLOUDY    65  56  72 CALM      30.01S                  
6HR MIN TEMP:  58; 6HR MAX TEMP:  65;                                

HOQUIAM        PTSUNNY   64  58  80 SW8       30.02S                  
6HR MIN TEMP:  60; 6HR MAX TEMP:  65;                                

ASTORIA, OR    CLOUDY    65  58  78 N6        30.02R                  
6HR MIN TEMP:  57; 6HR MAX TEMP:  66; 6HR PCP:  0.03;                

$$
 
WAZ019-023-024-040-567>569-191900-
CASCADE MOUNTAINS AND COLUMBIA GORGE
  
CITY           SKY/WX    TMP DP  RH WIND       PRES   REMARKS
STAMPEDE PASS  PTSUNNY   58  48  69 VRB6      30.06R                  
6HR MIN TEMP:  50; 6HR MAX TEMP:  58;                                

TROUTDALE, OR  PTSUNNY   67  55  65 CALM      30.02S                  
6HR MIN TEMP:  61; 6HR MAX TEMP:  68;                                

HOOD RIVER, OR CLEAR     70  54  56 W14G21    29.95R                  
THE DALLES, OR SUNNY     77  54  44 NW16      29.91S                  
6HR MIN TEMP:  62; 6HR MAX TEMP:  77;                                

$$

WAZ026-027-041>044-520-521-191900-
EAST SLOPES
  
CITY           SKY/WX    TMP DP  RH WIND       PRES   REMARKS
OMAK           MOSUNNY   80  43  26 N12       29.86S                  
6HR MIN TEMP:  55; 6HR MAX TEMP:  81;                                

WENATCHEE      MOSUNNY   77  47  34 NW14      29.88S                  
6HR MIN TEMP:  63; 6HR MAX TEMP:  77;                                

ELLENSBURG     MOSUNNY   75  44  33 NW25G35   29.91S                  
6HR MIN TEMP:  62; 6HR MAX TEMP:  75;                                

YAKIMA         SUNNY     80  49  33 VRB3      29.89S                  
6HR MIN TEMP:  56; 6HR MAX TEMP:  80;                                

SUNNYSIDE ARPT CLEAR     76  57  51 W6        29.89                   
6HR MIN TEMP:  52; 6HR MAX TEMP:  77;                                

YAKIMA TC      NOT AVBL                                               
$$

WAZ028-034-035-191900-
COLUMBIA BASIN
  
CITY           SKY/WX    TMP DP  RH WIND       PRES   REMARKS
EPHRATA        MOSUNNY   82  45  27 VRB5      29.86S                  
6HR MIN TEMP:  60; 6HR MAX TEMP:  83;                                

MOSES LAKE     MOSUNNY   82  49  31 S8        29.88R                  
6HR MIN TEMP:  57; 6HR MAX TEMP:  82;                                

PASCO          SUNNY     81  51  35 CALM      29.88S                  
6HR MIN TEMP:  67; 6HR MAX TEMP:  82;                                

RICHLAND ARPT  CLEAR     83  51  33 S6        29.88S                  
6HR MIN TEMP:  61; 6HR MAX TEMP:  83;                                

HERMISTON, OR  SUNNY     80  52  37 SW12      29.89F                  
6HR MIN TEMP:  66; 6HR MAX TEMP:  80;                                

$$

WAZ036>038-191900-
NORTHEAST WASHINGTON
  
CITY           SKY/WX    TMP DP  RH WIND       PRES   REMARKS
SPOKANE GEIGER MOSUNNY   75  47  36 SW13      29.93R                  
6HR MIN TEMP:  58; 6HR MAX TEMP:  75;                                

SPOKANE FELTS  SUNNY     76  48  37 S9        29.92S                  
6HR MIN TEMP:  58; 6HR MAX TEMP:  77;                                

FAIRCHILD AFB  NOT AVBL                                               
COEURDALENE,ID SUNNY     74  50  42 SE10      29.94S                  
6HR MIN TEMP:  57; 6HR MAX TEMP:  74;                                

DEER PARK      SUNNY     72  49  44 VRB3      29.93R                  
6HR MIN TEMP:  46; 6HR MAX TEMP:  73;                                

$$

WAZ029>033-191900-
SOUTHEAST WASHINGTON
  
CITY           SKY/WX    TMP DP  RH WIND       PRES   REMARKS
PULLMAN        SUNNY     77  44  30 W10       29.97S                  
6HR MIN TEMP:  49; 6HR MAX TEMP:  77;                                

LEWISTON, ID   SUNNY     79  44  28 VRB3      29.91S                  
6HR MIN TEMP:  60; 6HR MAX TEMP:  79;                                

WALLA WALLA    SUNNY     80  44  27 SW14      29.91F                  
6HR MIN TEMP:  66; 6HR MAX TEMP:  81;                                

PENDLETON, OR  SUNNY     81  44  27 W14       29.92S                  
6HR MIN TEMP:  55; 6HR MAX TEMP:  81;                                

$$